Location: Unspecified
(0.0000°N, 0.0000°E)
Time: 20:16:29
(UTC+00:00)

Vanguard 1 Rocket - Pass Details

Date: 13 December 2017
Orbit: 656 x 4221 km, 34.3° (Epoch: 21 January)

Event Time Altitude Azimuth Distance (km) Brightness Sun altitude
Exits shadow 00:43:38 47° 104° (ESE) 4,400 10.6 -63.9°
Drops below altitude 10° 00:54:57 10° 118° (ESE) 5,831 11.7 -62.5°
Sets 00:58:33 0° 120° (ESE) 6,477 12.1 -62.0°
